543  
NZUS93 KARX 181310  
HRRWXR  
 
CURRENT HOURLY OBSERVATIONS ACROSS  
MUCH OF THE UPPER MISSISSIPPI VALLEY  
NATIONAL WEATHER SERVICE LA CROSSE WI  
700 AM CST SAT NOV 18 2017  
 
   
..SOUTHEAST MINNESOTA
 
 
 
CITY SKY/WX TMP DP RH WIND PRES REMARKS  
ROCHESTER CLOUDY 33 32 96 N20 29.70R WCI 21  
ROCHESTER/MAYO CLOUDY 34 33 96 NW9G16 29.71R WCI 27  
WINONA CLOUDY 36 34 93 NW6 29.70R WCI 31  
AUSTIN CLOUDY 34 32 93 N12G20 29.71R FOG WCI 25  
ALBERT LEA CLOUDY 34 34 100 N12 29.72R FOG WCI 25  
DODGE CENTER CLOUDY 34 32 93 N14 29.71R FOG WCI 24  
PRESTON CLOUDY 33 32 96 N13G18 29.68R FOG WCI 24  
OWATONNA CLOUDY 34 34 100 NW13 29.75R FOG WCI 25  
FARIBAULT CLOUDY 34 32 93 NW9 29.76R WCI 26  

 
   
..ELSEWHERE IN MINNESOTA
 
 
 
CITY SKY/WX TMP DP RH WIND PRES REMARKS  
MINNEAPOLIS CLOUDY 33 30 88 NW13 29.77R WCI 24  
INTNL FALLS CLOUDY 15 11 83 W5 29.81R FOG WCI 8  
DULUTH CLOUDY 24 22 91 NW7 29.71S WCI 16  
RED WING CLOUDY 36 30 80 N6 29.73S WCI 31  
REDWOOD FALLS CLOUDY 25 19 78 NW12 29.83R WCI 14  
MANKATO CLOUDY 31 29 92 NW14 29.79R WCI 21  
WORTHINGTON PTCLDY 27 21 78 NW17 29.82R WCI 14  
FAIRMONT MOCLDY 29 25 85 NW17G23 29.79R WCI 17  

 
   
..SOUTHWEST WISCONSIN
 
 
 
CITY SKY/WX TMP DP RH WIND PRES REMARKS  
LA CROSSE CLOUDY 38 35 89 N12 29.67R WCI 30  
PRAIRIE DU CHI LGT RAIN 37 35 92 NW9 29.64R WCI 31  
BOSCOBEL LGT RAIN 38 35 89 N5 29.64R WCI 34  
LONE ROCK LGT RAIN 37 35 92 N9 29.63R WCI 30  
PLATTEVILLE CLOUDY 35 35 100 N17 29.58S WCI 25  
FORT MC COY CLOUDY 34 33 96 N8 29.67R WCI 27  
CAMP DOUGLAS CLOUDY N/A N/A N/A NW8 29.66R  
MAUSTON-NEW LI CLOUDY 36 34 93 NW7 29.64R FOG WCI 30  
VIROQUA CLOUDY 34 34 100 N13 29.63R WCI 25  
WIS DELLS LGT RAIN 35 34 96 N8 29.62R WCI 28  

 
   
..ELSEWHERE IN WISCONSIN
 
 
 
CITY SKY/WX TMP DP RH WIND PRES REMARKS  
MILWAUKEE CLOUDY 40 37 89 N10G20 29.51F WCI 33  
MADISON LGTSLEET 35 33 92 N12 29.58R WCI 27  
GREEN BAY CLOUDY 37 35 92 N13G22 29.59S WCI 29  
EAU CLAIRE CLOUDY 35 32 88 N8 29.71R WCI 29  
BLACK RVR FLS CLOUDY 36 36 100 NW7 29.67R WCI 30  
MEDFORD CLOUDY 32 32 99 N12 29.64R FOG WCI 23  
WAUSAU CLOUDY 34 33 96 N12 29.61S FOG WCI 25  
WIS RAPIDS CLOUDY 36 33 89 N10 29.65R WCI 28  
MARSHFIELD CLOUDY 34 31 88 N12G18 29.63R WCI 25  
RICE LAKE CLOUDY 33 32 95 NW8 29.72R WCI 26  

 
   
..NORTHEAST IOWA
 
 
 
CITY SKY/WX TMP DP RH WIND PRES REMARKS  
WATERLOO CLOUDY 37 35 92 N16 29.66R WCI 28  
DUBUQUE RAIN 36 35 96 N17 29.57R FOG WCI 26  
DECORAH CLOUDY 36 36 100 N10G17 29.64R FOG WCI 28  
MASON CITY CLOUDY 35 32 88 N16 29.72R WCI 25  
CHARLES CITY CLOUDY 36 36 100 N15G21 29.68R FOG WCI 26  
OELWEIN CLOUDY 37 37 100 N15G22 29.65R WCI 28  

 
   
..ELSEWHERE IN IOWA
 
 
 
CITY SKY/WX TMP DP RH WIND PRES REMARKS  
DES MOINES LGT RAIN 39 37 92 N13G26 29.67R WCI 31  
IOWA CITY RAIN 41 38 89 N17G28 29.59R FOG  
FORT DODGE CLOUDY 35 33 92 N15 29.76R WCI 25  
MARSHALLTOWN CLOUDY 38 36 92 N15 29.65S WCI 29  
CEDAR RAPIDS HVY RAIN 38 37 97 N13 29.59R WCI 30  

 
   
..NORTHERN ILLINOIS
 
 
 
CITY SKY/WX TMP DP RH WIND PRES REMARKS  
CHICAGO-OHARE RAIN 43 39 86 N13 29.46F FOG  
CHICAGO-MIDWAY CLOUDY 44 42 93 N14G25 29.47R FOG  
MOLINE CLOUDY 42 38 85 N14G21 29.50R  
ROCKFORD CLOUDY 39 37 92 N13 29.53R WCI 31  
PEORIA RAIN 48 48 100 NE13G23 29.37F FOG  

 
 
NOTE: "FAIR" INDICATES FEW OR NO CLOUDS BELOW 12,000 FEET WITH NO  
SIGNIFICANT WEATHER AND/OR OBSTRUCTIONS TO VISIBILITY. WIND  
SPEEDS ARE IN MILES-PER-HOUR.  
 
 
CLICK HERE TO GO TO PREVIOUS BULLETINS.

The Nexlab WI Page
The Nexlab IA Page
The Nexlab MN Page Main Text Page